Regional Weather Roundup
Issued by NWS

Home | Current Version | Previous Version | Graphics & Text | Print | Product List | Glossary On
Versions: 1 2 3 4 5 6 7 8 9 10 11 12 13 14 15 16 17 18 19 20 21 22 23 24 25 26 27 28 29 30 31 32 33 34 35 36 37 38 39 40 41 42 43 44 45 46 47 48 49 50
000
ASUS43 KDMX 282007
RWRIA

WEATHER ROUNDUP FOR IOWA
NATIONAL WEATHER SERVICE DES MOINES IA
300 PM CDT SAT MAR 28 2015

NOTE: "FAIR" INDICATES FEW OR NO CLOUDS BELOW 12,000 FEET WITH NO
SIGNIFICANT WEATHER AND/OR OBSTRUCTIONS TO VISIBILITY.

* - THESE STATIONS ARE NOT NWS STATIONS...THUS NOT UNDER NWS
QUALITY CONTROL.  THEY ALSO DO NOT REPORT WEATHER SUCH
AS PRECIPITATION OR FOG.

IAZ001>003-012>014-020>022-031>034-043>046-282100-
   NORTHWEST IOWA

CITY           SKY/WX    TMP DP  RH WIND       PRES   REMARKS
CARROLL *      SUNNY     48  23  37 S16G23    30.13F
CHEROKEE *     SUNNY     48  27  43 SE16G28   30.09F
DENISON *      MOSUNNY   50  25  37 S14G20    30.08F
LE MARS *      SUNNY     50  25  37 S13G23    30.07F
ORANGE CITY *  SUNNY     50  25  37 S13G23    30.06F
SHELDON *      SUNNY     48  28  46 S17G28    30.06F
SIOUX CITY     SUNNY     53  26  35 S18G26    30.07F
SPENCER        PTSUNNY   47  29  49 S20G26    30.10F
STORM LAKE *   MOSUNNY   46  27  46 S20G25    30.10F
$$

IAZ055>058-069>071-079>083-090>094-282100-
   SOUTHWEST IOWA

CITY           SKY/WX    TMP DP  RH WIND       PRES   REMARKS
ATLANTIC *     MOSUNNY   48  27  43 SE14      30.13F
AUDUBON *      SUNNY     50  25  37 S12       30.13F
CLARINDA *     SUNNY     52  28  40 S13       30.14F
COUNCIL BLFS * SUNNY     52  28  40 S16       30.10F
CRESTON *      SUNNY     46  25  42 S12G18    30.15F
HARLAN  *      SUNNY     50  27  40 SE13G20   30.15F
LAMONI         SUNNY     46  25  43 S9G18     30.17F
RED OAK *      SUNNY     50  27  40 S10G22    30.13F
SHENANDOAH *   SUNNY     52  30  43 SE12G20   30.13F
$$

IAZ047>049-059>061-072>074-084-282100-
   CENTRAL IOWA

CITY           SKY/WX    TMP DP  RH WIND       PRES   REMARKS
AMES           SUNNY     47  16  29 SE13G23   30.18F
ANKENY *       SUNNY     46  16  29 S12G18    30.18F
CHARITON *     SUNNY     46  18  31 SE15      30.18F
DES MOINES     MOSUNNY   49  15  25 S13       30.19F
GRINNELL*      SUNNY     45  12  26 SE13      30.21F
KNOXVILLE *    SUNNY     46  14  27 SE10      30.18F
MARSHALLTOWN   SUNNY     45  15  30 S14G30    30.19F
PELLA *        SUNNY     46  19  34 S12G17    30.22F
PERRY *          N/A     48  19  32 SE13G21   30.16F
$$

IAZ004>006-015-016-023>025-035-036-282100-
   NORTH CENTRAL IOWA

CITY           SKY/WX    TMP DP  RH WIND       PRES   REMARKS
ALGONA *       SUNNY     45  23  42 S14G23    30.15F
CLARION *      SUNNY     45  25  45 SE14G23   30.16F
ESTHERVILLE    MOSUNNY   45  25  45 S20G29    30.11F
FORT DODGE *   SUNNY     48  19  32 SE12G17   30.16F
MASON CITY     SUNNY     44  20  38 S15       30.18F
FOREST CITY *  SUNNY     43  21  42 SE14G22   30.16F
IOWA FALLS *     N/A     45  19  36 SE10G20   30.19F
$$

IAZ007>011-017>019-026>030-037>042-050>054-066-282100-
   NORTHEAST IOWA

CITY           SKY/WX    TMP DP  RH WIND       PRES   REMARKS
CEDAR RAPIDS   SUNNY     42  13  30 S14G21    30.24F
CHARLES CITY * SUNNY     41  18  38 S10G17    30.20F
CLINTON *      SUNNY     39  12  33 S13       30.31F WCI  32
DECORAH *      SUNNY     36  16  44 SE7       30.22F WCI  30
DUBUQUE        SUNNY     38  11  32 SW10      30.25F WCI  31
MONTICELLO *   SUNNY     41  12  30 S9G17     30.26F
OELWEIN *      SUNNY     41  16  36 S10G18    30.23F
WATERLOO       SUNNY     44  14  29 S13       30.21F
$$

IAZ064-065-067-068-078-282100-
   EAST CENTRAL IOWA

CITY           SKY/WX    TMP DP  RH WIND       PRES   REMARKS
DAVENPORT      SUNNY     39   9  29 S9        30.29F WCI  33
IOWA CITY      SUNNY     42  12  29 SE10      30.28F
MT. PLEASANT * SUNNY     43  12  28 SE6       30.26F
MUSCATINE *    SUNNY     43  12  28 S10G17    30.28F
QUAD CITIES    SUNNY     41  10  28 S9        30.29F
$$

IAZ062-063-075>077-085>089-095>099-282100-
   SOUTHEAST IOWA

CITY           SKY/WX    TMP DP  RH WIND       PRES   REMARKS
BURLINGTON     SUNNY     42  12  29 E6        30.27F
FAIRFIELD *    SUNNY     43  10  26 E9G15     30.24F
FORT MADISON * SUNNY     43  18  36 SE5       30.27F
KEOKUK *       SUNNY     43  14  31 E9G16     30.26F
OSKALOOSA *      N/A     45  14  29 SE10G20   30.23F
CENTERVILLE *  SUNNY     46  18  31 SE12      30.21F
OTTUMWA        SUNNY     45  14  28 S10       30.22F
WASHINGTON *   SUNNY     45  14  29 S14       30.25F
$$

ABBREVIATIONS USED IN REMARKS
   TC - TEMPERATURES IN CELSIUS
  WCI - WIND CHILL INDEX
   HX - HEAT INDEX
  VSB - VISIBILITY
$$



USA.gov is the U.S. government's official web portal to all federal, state and local government web resources and services.